Location: Ferchesar
(52.6477°N, 12.4298°E)
Time: 04:11:16
(UTC+01:00)

Vanguard 1 - Pass Details

Date: 09 December 2021
Orbit: 652 x 3830 km, 34.2° (Epoch: 21 January)

Event Time Altitude Azimuth Distance (km) Brightness Sun altitude
Exits shadow 01:29:05 30° 133° (SE) 5,065 13.4 -55.9°
Drops below altitude 10° 01:37:03 10° 116° (ESE) 6,059 14.1 -55.1°
Sets 01:41:18 0° 111° (ESE) 6,739 14.5 -54.7°
